This is the latest recevied weather packets stored in our database for station/object KC1DMA. If no packets are shown the sender has not sent any weather packets the latest 10 day(s).
| Time | Temp. | Humidity | Pressure | Rain* | Wind** | Luminosity | Snow |
|---|---|---|---|---|---|---|---|
| 1777658153 | 15.56° C | 38% | 1012.3 hPa | - | - | 883 W/m² | - |
| 1777657244 | 15° C | 39% | 1012.4 hPa | - | - | 830 W/m² | - |
| 1777656638 | 13.89° C | 41% | 1012.6 hPa | - | - | 887 W/m² | - |
| 1777655726 | 14.44° C | 41% | 1012.5 hPa | - | - | 906 W/m² | - |
| 1777655422 | 14.44° C | 40% | 1012.5 hPa | - | - | 943 W/m² | - |
| 1777652695 | 13.33° C | 43% | 1013 hPa | - | - | 1035 W/m² | - |
| 1777652089 | 12.78° C | 44% | 1013.1 hPa | - | - | 193 W/m² | - |
| 1777651786 | 12.78° C | 47% | 1012.9 hPa | - | - | 922 W/m² | - |
| 1777651180 | 13.33° C | 47% | 1013.3 hPa | - | - | 855 W/m² | - |
| 1777650876 | 12.78° C | 45% | 1013.2 hPa | - | - | 851 W/m² | - |
| 1777650271 | 12.22° C | 48% | 1013.3 hPa | - | - | 824 W/m² | - |
| 1777649967 | 12.22° C | 47% | 1013.3 hPa | - | - | 836 W/m² | - |
| 1777649666 | 12.78° C | 49% | 1013.2 hPa | - | - | 840 W/m² | - |
| 1777649360 | 12.78° C | 47% | 1013.4 hPa | - | - | 350 W/m² | - |
| 1777649058 | 12.22° C | 51% | 1013.3 hPa | - | - | 832 W/m² | - |
| 1777648756 | 11.67° C | 49% | 1013.6 hPa | - | - | 854 W/m² | - |
| 1777648452 | 12.78° C | 53% | 1013.4 hPa | - | - | 832 W/m² | - |
| 1777648148 | 12.78° C | 53% | 1013.2 hPa | - | - | 801 W/m² | - |
| 1777647844 | 11.11° C | 52% | 1013.5 hPa | - | - | 176 W/m² | - |
| 1777647541 | 11.11° C | 55% | 1013.6 hPa | - | - | 832 W/m² | - |
| 1777646327 | 11.11° C | 57% | 1013.6 hPa | - | - | 782 W/m² | - |
| 1777646024 | 11.11° C | 55% | 1013.6 hPa | - | - | 790 W/m² | - |
| 1777645720 | 11.11° C | 55% | 1013.8 hPa | - | - | 821 W/m² | - |
| 1777645417 | 10.56° C | 57% | 1013.5 hPa | - | - | 474 W/m² | - |
| 1777645113 | 11.11° C | 58% | 1013.6 hPa | - | - | 827 W/m² | - |
* Rain since midnight (hover to see other rain measurements)
** Current wind speed in m/s (hover to see current wind gust speed)